Regional Weather Roundup
Issued by NWS Grand Forks, ND

Home | Current Version | Previous Version | Text Only | Print | Product List | Glossary On
Versions: 1 2 3 4 5 6 7 8 9 10 11 12 13 14 15 16 17 18 19 20 21 22 23 24 25 26 27 28 29 30 31 32 33 34 35 36 37 38 39 40 41 42 43 44 45 46 47 48 49 50
000
ASUS43 KFGF 240631
RWRFGF
PRAIRIE TO PINES  WEATHER ROUNDUP
NATIONAL WEATHER SERVICE EASTERN NORTH DAKOTA/GRAND FORKS ND
100 AM CDT THU JUL 24 2014

 **SATELLITE DATA USED TO AUGMENT SKY COVER AT AUTOMATED STATIONS**
 *****  WEATHER ACROSS EASTERN NORTH DAKOTA  *****

CITY           SKY/WX    TMP DP  RH WIND       PRES   REMARKS
GRAND FORKS    CLEAR     60  58  92 S3        30.16S
6HR MIN TEMP:  60; 6HR MAX TEMP:  75;

GRAND FRKS AFB PTCLDY    60  60 100 CALM      30.17S
GRAND FRKS NWS   N/A     59 N/A N/A MISG        N/A
DEVILS LAKE    CLEAR     63  55  77 SE12      30.13S
6HR MIN TEMP:  63; 6HR MAX TEMP:  73;

FARGO          CLEAR     64  59  83 E7        30.15F
WAHPETON ARPT  CLEAR     63  55  77 E3        30.16F
$$

 ***** WEATHER ACROSS CENTRAL AND WESTERN NORTH DAKOTA  *****

CITY           SKY/WX    TMP DP  RH WIND       PRES   REMARKS
BISMARCK       PTCLDY    67  58  72 SE13      30.08F
6HR MIN TEMP:  66; 6HR MAX TEMP:  82;

MINOT          PTCLDY    65  62  90 SE14      30.07F
6HR MIN TEMP:  65; 6HR MAX TEMP:  76;

JAMESTOWN      CLEAR     64  59  83 SE10      30.15S
6HR MIN TEMP:  64; 6HR MAX TEMP:  77;

MINOT AFB      PTCLDY    64  64  99 SE10      30.07S
GARRISON         N/A     68  61  78 SE12      30.07S
WILLISTON      MOCLDY    74  60  61 SE13G18   29.98F
6HR MIN TEMP:  74; 6HR MAX TEMP:  86;

DICKINSON      CLEAR     67  56  67 SE18G26   30.00F
6HR MIN TEMP:  67; 6HR MAX TEMP:  80;

HETTINGER      PTCLDY    68  54  60 SE14      30.04F
6HR MIN TEMP:  68; 6HR MAX TEMP:  81;

$$

 *****  OTHER AIRPORT OBSERVATIONS IN OUR AREA  *****

CITY           SKY/WX    TMP DP  RH WIND       PRES   REMARKS
WALHALLA         N/A     54  54 100 NE3         N/A
GRAFTON AIRPOR FAIR      55  54  94 NE6       30.15F
VALLEY CITY AR FAIR      63  63 100 SE6       30.16F
CANDO          CLOUDY    63  57  82 SE9       30.14F
CAVALIER APRT  FAIR      57  55  94 CALM      30.15F
GWINNER        CLEAR     63  63 100 E6        30.17F
SHEYENNE NWR     N/A     59  58  97 E3        29.95S
ROLLA          CLOUDY    59  59 100 SE8       30.16S
 ***** THE ABOVE OBSERVATIONS ARE NON NWS ARE NOT QUALITY
       CONTROLLED AND MAY MIS-REPORT RAIN FOR SNOW...
$$

  *****  WEATHER ACROSS NORTHERN MINNESOTA  *****

CITY           SKY/WX    TMP DP  RH WIND       PRES   REMARKS
FLAG ISLAND    CLEAR     64  48  55 E3        30.16S
WARROAD        CLEAR     54  50  87 CALM      30.18F
ROSEAU         PTCLDY    54  48  82 CALM      30.17F
HALLOCK        MOCLDY    61  55  82 CALM      30.16S
THF RVR FALLS  PTCLDY    57  55  94 CALM      30.17S
6HR MIN TEMP:  57; 6HR MAX TEMP:  72;

BAUDETTE       PTCLDY    56  53  90 CALM      30.19S
6HR MIN TEMP:  56; 6HR MAX TEMP:  71;

WASKISH        PTCLDY    54  52  94 CALM      30.18F
CROOKSTON      PTCLDY    57  55  94 CALM      30.17S
$$
  *****  WEATHER ACROSS CENTRAL AND WEST MINNESOTA  *****

CITY           SKY/WX    TMP DP  RH WIND       PRES   REMARKS
FOSSTON        PTCLDY    54  48  82 CALM      30.18F
BEMIDJI        CLEAR     54  52  94 CALM      30.18S
PARK RAPIDS    CLEAR     54  53  97 CALM      30.19S
6HR MIN TEMP:  54; 6HR MAX TEMP:  75;

ELBOW LAKE     FAIR      65  58  78 E5        30.17F
WADENA         CLEAR     54  52  94 CALM      30.18F
DETROIT LAKES  CLEAR     61  57  88 CALM      30.19F
MOORHEAD       CLEAR     63  61  94 E3        30.16F
FERGUS FALLS   CLEAR     64  55  72 CALM      30.17S
MORRIS MN      CLEAR     57  55  94 E6        30.17S
STAPLES        CLEAR     55  55 100 CALM      30.18S
$$
  *****  WEATHER ELSEWHERE ACROSS MINNESOTA  *****

CITY           SKY/WX    TMP DP  RH WIND       PRES   REMARKS
DULUTH         PTCLDY    58  50  75 E3        30.19S
6HR MIN TEMP:  58; 6HR MAX TEMP:  72;

INTRNTL FALLS  CLEAR     49  48  97 CALM      30.18F
6HR MIN TEMP:  49; 6HR MAX TEMP:  71;

ELY            CLEAR     46  45  93 CALM      30.20S
CLOQUET        MOCLDY    54  50  87 CALM      30.18F
WHEATON        CLEAR     59  57  94 SE3       30.18S
BRAINERD       CLEAR     54  54 100 CALM      30.18S
6HR MIN TEMP:  53; 6HR MAX TEMP:  74;

HIBBING        CLEAR     50  48  93 CALM      30.19S
6HR MIN TEMP:  50; 6HR MAX TEMP:  74;

ALEXANDRIA     CLEAR     62  57  83 CALM      30.20S
6HR MIN TEMP:  62; 6HR MAX TEMP:  76;

SAINT CLOUD    CLEAR     57  54  89 CALM      30.17S
6HR MIN TEMP:  57; 6HR MAX TEMP:  80;

MINNEAPOLIS    CLEAR     67  58  72 N3        30.17R
6HR MIN TEMP:  66; 6HR MAX TEMP:  80;

$$

  *****  WEATHER ACROSS SOUTH DAKOTA  *****

CITY           SKY/WX    TMP DP  RH WIND       PRES   REMARKS
SIOUX FALLS    CLEAR     64  56  75 E7        30.17F
6HR MIN TEMP:  64; 6HR MAX TEMP:  77;

BROOKINGS      NOT AVBL
WATERTOWN      CLEAR     64  55  72 SE6       30.18S
6HR MIN TEMP:  64; 6HR MAX TEMP:  77;

HURON          CLEAR     65  55  70 SE10      30.13F
6HR MIN TEMP:  65; 6HR MAX TEMP:  78;

SISSETON         N/A     60  58  92 CALM      30.16F
ABERDEEN       CLEAR     60  57  89 SE5       30.15S
6HR MIN TEMP:  60; 6HR MAX TEMP:  79;

MITCHELL       CLEAR     64  59  83 SE5       30.16R
PIERRE         CLEAR     70  58  65 SE13      30.06F
6HR MIN TEMP:  70; 6HR MAX TEMP:  86;

MOBRIDGE       CLEAR     68  56  65 SE14      30.07F
RAPID CITY     PTCLDY    69  62  78 SE8       30.03S
6HR MIN TEMP:  68; 6HR MAX TEMP:  84;

$$

  *****  SOME WEATHER IN NEARBY STATES *****

CITY           SKY/WX    TMP DP  RH WIND       PRES   REMARKS
GLASGOW MT     PTCLDY    79  62  56 E17G29    29.87R
6HR MIN TEMP:  79; 6HR MAX TEMP:  92;

GREAT FALLS MT PTCLDY    65  54  67 CALM      29.89R
6HR MIN TEMP:  64; 6HR MAX TEMP:  92; 6HR PCP: TRACE;

CHEYENNE WY    MOCLDY    70  46  42 SW14G22   30.24R
6HR MIN TEMP:  70; 6HR MAX TEMP:  84; 6HR PCP: TRACE;

SCOTTSBLUFF NE CLEAR     72  65  78 E14       30.08S
6HR MIN TEMP:  72; 6HR MAX TEMP:  90;

OMAHA NE       CLEAR     71  61  70 SE7       30.16F
6HR MIN TEMP:  71; 6HR MAX TEMP:  83;

DES MOINES IA  CLEAR     70  59  68 CALM      30.16S
6HR MIN TEMP:  70; 6HR MAX TEMP:  80;

DAVENPORT IA   MOCLDY    64  57  78 E12       30.16S
6HR MIN TEMP:  59; 6HR MAX TEMP:  76;

CHICAGO IL     CLEAR     59  49  69 N6        30.14F
6HR MIN TEMP:  59; 6HR MAX TEMP:  67;

EAU CLAIRE WI  CLEAR     60  56  86 NE7       30.17R
6HR MIN TEMP:  60; 6HR MAX TEMP:  78;

LA CROSSE WI   CLEAR     65  60  84 CALM      30.15R
6HR MIN TEMP:  63; 6HR MAX TEMP:  80;

$$

  *****  SOME NATIONAL WEATHER *****

CITY           SKY/WX    TMP DP  RH WIND       PRES   REMARKS
LA GUARDIA NY  MOCLDY    75  68  78 NW6       29.79R
6HR MIN TEMP:  75; 6HR MAX TEMP:  85; 6HR PCP:  0.12;

RALEIGH NC     PTCLDY    76  71  85 SW8       29.92F
6HR MIN TEMP:  75; 6HR MAX TEMP:  83;

ATLANTA GA     PTCLDY    75  71  87 W5        30.01F
6HR MIN TEMP:  75; 6HR MAX TEMP:  85;

NEW ORLEANS LA MOCLDY    77  73  87 S5        29.98F
6HR MIN TEMP:  76; 6HR MAX TEMP:  81;

OKLAHOMA CITY  CLOUDY    75  66  73 SW3       30.09F
6HR MIN TEMP:  74; 6HR MAX TEMP:  91;

ALBUQUERQUE NM PTCLDY    78  48  34 SE9       30.32R
6HR MIN TEMP:  76; 6HR MAX TEMP:  89;

SALT LAKE CITY MOCLDY    87  45  23 S18G26    29.94S
6HR MIN TEMP:  87; 6HR MAX TEMP: 103;

LOS ANGELES CA CLEAR     68  62  81 SW7       29.90R
6HR MIN TEMP:  68; 6HR MAX TEMP:  76;

BOISE ID       CLEAR     78  37  22 W7        29.93R



USA.gov is the U.S. government's official web portal to all federal, state and local government web resources and services.